User: anonymous   Login
Location: Caltech
(34.1382°N, 118.1253°W)
Time: 22:23:50
(UTC-08:00)
Language:

PAYLOAD A - Orbit

View from above orbital plane
View from above orbital plane
View from above satellite
View from above satellite

Ground track
Ground track

The orbit data is extracted from the following two-line orbital elements,

1 27840U 03031A   17347.50537489 -.00000017  00000-0  85263-5 0  9999
2 27840  98.2170 337.3942 0097165 298.9686  60.1788 14.38894285759099
Epoch (UTC): 13 December 2017 12:07:44
Eccentricity: 0.0097165
inclination: 98.2170°
perigee height: 693 km
apogee height: 831 km
right ascension of ascending node: 337.3942°
argument of perigee: 298.9686°
revolutions per day: 14.38894285
mean anomaly at epoch: 60.1788°
orbit number at epoch: 75909

The dashed part of the orbit path shows where the satellite is in the earth's shadow,  

DLR